EHI
74 78 84 83 77 73 68 60 54 51 49 42 32 23 18 12 7 12 28 45 53 56 55 47 33 18 9 5 2 1 3 4 4 2 1 1 0 0 0 0 0 0 0
76 77 80 79 75 70 66 62 56 52 46 41 34 25 18 15 12 16 27 41 49 49 47 42 30 17 8 4 2 1 3 5 6 4 2 1 0 0 0 0 0 0 0
76 75 73 71 68 63 60 58 55 50 43 36 30 22 19 19 19 20 25 34 39 36 34 31 24 14 7 4 2 2 2 5 7 5 2 1 0 0 0 0 0 0 0
68 67 65 63 59 54 49 46 44 42 37 31 24 19 19 20 20 20 20 24 27 28 26 21 17 12 7 4 4 4 4 4 5 4 2 1 0 0 0 0 0 0 0
53 53 52 50 46 41 35 30 29 29 27 24 19 16 16 16 16 16 14 16 22 27 25 18 12 9 5 4 4 6 6 6 5 4 3 3 2 0 0 0 0 0 0
39 37 35 33 29 26 22 17 17 18 17 16 13 11 10 11 15 16 13 13 19 23 21 18 16 11 5 2 3 6 7 7 9 9 7 5 3 1 1 0 0 0 0
25 24 22 19 18 17 15 12 12 12 10 10 9 7 7 8 14 17 15 13 14 15 14 18 24 21 11 4 3 6 8 11 14 15 12 7 5 4 2 1 0 0 0
11 11 12 13 14 15 12 10 11 9 7 7 7 6 5 6 9 12 13 12 11 12 13 17 26 28 20 11 6 6 10 14 17 18 16 10 8 5 3 1 0 0 0
3 4 6 8 10 12 12 10 9 8 5 5 5 5 5 6 7 9 10 9 9 11 12 13 21 26 22 17 10 6 7 11 14 15 14 12 8 5 2 1 1 1 0
2 2 3 4 6 9 10 10 9 7 5 3 2 3 6 7 7 6 6 6 7 9 9 8 14 21 21 17 12 6 3 4 8 9 9 7 5 2 1 1 1 2 1
3 3 3 4 5 6 8 10 9 8 6 4 3 4 6 6 5 3 3 4 5 6 7 7 11 16 17 15 10 5 2 2 3 4 3 2 1 1 0 0 1 2 1
5 4 3 3 4 4 6 8 9 8 8 7 7 8 9 9 7 5 5 5 5 6 8 10 13 15 15 12 8 4 2 1 1 1 1 0 0 0 0 0 0 1 2
6 5 3 3 3 2 3 5 5 6 8 7 6 7 10 11 10 9 9 8 7 9 10 11 15 17 16 13 8 2 0 0 0 0 0 0 0 0 0 0 1 2 2
5 5 4 3 1 1 1 1 2 4 5 5 4 5 7 9 8 10 12 11 8 8 8 11 17 21 22 17 8 1 0 0 0 0 0 0 0 0 0 0 1 2 2
4 4 4 2 1 1 2 1 0 1 3 3 3 3 4 5 4 7 13 12 7 5 8 13 20 26 25 16 5 1 1 0 0 0 0 0 0 0 0 0 0 1 1
5 5 3 2 1 1 2 1 0 0 1 1 1 1 1 2 2 5 9 9 6 4 8 15 22 26 23 11 3 2 2 1 0 0 0 0 0 0 0 0 0 0 0
5 5 4 2 1 1 1 1 0 0 0 0 0 0 0 0 0 2 4 5 5 5 8 13 19 21 18 10 4 4 2 0 0 0 0 0 0 0 0 0 0 0 0
3 3 3 2 1 1 1 0 0 0 0 0 0 0 0 0 0 0 1 2 3 6 8 11 15 14 11 9 5 3 1 0 0 0 0 0 0 0 0 0 0 0 0
1 1 1 1 1 0 0 0 0 0 0 0 0 0 0 0 0 0 0 1 2 4 7 9 10 7 5 4 3 1 0 0 0 0 0 0 0 0 0 0 0 0 0
0 0 0 0 0 0 0 0 0 0 0 0 0 0 0 0 0 0 0 0 0 2 3 5 5 4 3 3 2 1 0 0 0 0 0 0 0 0 0 0 0 0 0
0 0 0 0 0 0 0 0 0 0 1 0 0 0 0 0 0 0 0 0 0 0 1 2 2 2 2 3 3 1 1 0 0 0 0 0 0 0 0 0 0 0 0
0 0 0 0 0 0 0 0 0 0 0 0 0 0 0 0 0 0 0 0 0 0 0 0 1 1 1 1 2 2 2 1 0 0 0 0 0 0 0 0 0 0 0
0 0 0 0 0 0 0 0 0 0 0 0 1 0 0 0 0 0 0 0 0 0 0 0 0 0 0 0 1 2 2 1 0 0 0 0 0 0 0 0 0 0 0
0 0 0 0 0 0 0 0 0 0 0 0 0 0 0 0 0 0 0 0 0 0 0 0 0 0 0 0 0 1 1 0 0 0 0 0 0 0 0 0 0 0 0
0 0 0 0 0 0 0 0 0 0 0 0 0 0 0 0 0 0 0 0 0 0 0 0 0 0 0 0 0 0 0 0 0 0 0 0 0 0 0 0 0 0 0
0 0 0 0 0 0 0 0 0 0 0 0 0 0 0 0 0 0 0 0 0 0 0 0 0 0 0 0 0 0 0 0 0 0 0 0 0 0 0 0 0 0 0
Wind_Speed
3 3 2 2 3 4 6 5 5 6 6 6 6 7 7 7 7 5 5 15 16 16 17 17 17 17 16 16 16 16 17 17 16 16 16 15 15 14 13 13 12 12 11
2 3 4 3 4 4 3 4 6 5 5 5 6 7 7 7 7 6 5 10 15 16 16 17 18 18 18 17 17 17 17 17 17 17 17 16 16 15 14 14 13 13 13
3 4 4 4 5 4 4 3 5 5 6 6 7 8 7 7 6 6 5 5 8 13 16 17 17 18 18 19 19 18 18 18 17 17 17 17 17 16 15 15 14 14 13
3 4 5 5 5 4 4 4 5 5 5 5 5 6 6 6 8 7 6 6 6 7 13 19 18 18 18 19 19 19 18 18 18 18 18 18 18 17 16 16 15 15 14
5 5 5 4 4 4 4 6 5 5 5 5 5 6 6 6 7 8 8 8 8 8 8 14 19 19 19 19 19 19 19 19 18 18 19 19 19 18 17 17 16 15 15
5 5 4 4 4 4 4 5 4 4 4 5 7 7 6 6 6 6 7 7 7 10 10 9 10 13 18 18 18 18 19 19 18 19 19 19 19 19 18 17 17 16 16
4 4 4 3 4 5 6 6 4 5 5 5 5 5 5 7 6 5 6 6 7 10 9 8 8 7 8 16 16 17 18 18 18 18 18 18 18 18 18 18 17 17 16
3 4 4 4 4 4 6 5 5 4 4 5 4 4 4 4 5 9 6 6 5 5 7 9 7 7 5 5 10 16 17 17 18 18 17 16 16 16 16 17 17 16 16
2 3 3 3 4 4 4 5 6 6 5 4 5 4 3 3 2 4 6 6 5 4 5 6 8 8 8 6 7 14 17 15 15 16 16 15 15 15 15 16 16 16 16
2 3 3 3 3 3 3 4 4 4 4 4 4 4 3 1 1 1 2 4 5 5 4 5 6 7 8 6 6 11 15 14 13 13 13 14 14 14 14 15 15 15 15
3 3 3 2 2 2 3 3 3 3 3 4 3 3 4 3 3 2 3 3 3 4 4 4 4 4 6 5 5 8 12 12 11 11 11 12 12 13 13 14 15 15 15
3 3 3 2 2 1 2 2 3 3 3 3 3 3 3 2 3 3 3 3 4 4 5 4 4 4 5 5 7 11 12 11 10 9 9 9 10 10 11 13 14 15 15
3 3 2 1 1 1 2 2 2 3 3 3 3 3 3 3 3 2 2 2 3 2 3 3 3 4 5 6 6 11 11 10 9 8 7 7 8 9 9 10 11 12 12
4 3 3 3 3 3 3 1 2 2 2 3 4 3 3 3 3 2 2 2 2 1 2 3 2 4 4 6 8 10 8 10 8 7 6 6 6 7 7 7 7 6 7
6 4 3 3 4 4 3 2 3 3 2 2 3 3 3 3 2 3 2 1 2 2 2 3 2 3 4 6 10 6 7 9 8 7 6 6 6 6 5 5 5 4 4
7 7 6 6 5 5 5 4 3 3 3 3 2 2 3 3 2 2 1 1 1 2 2 2 1 3 5 6 8 7 8 11 9 8 7 7 6 6 5 5 4 4 4
7 7 7 7 7 7 6 6 5 5 5 4 4 3 3 3 2 2 2 2 2 1 3 2 1 3 4 6 6 7 7 6 6 8 8 7 7 6 5 5 4 3 3
8 8 7 8 8 8 7 8 8 7 6 6 5 4 4 3 3 2 2 2 2 2 3 3 2 2 3 5 7 7 6 6 6 8 9 8 7 7 6 5 4 3 2
9 8 8 8 8 8 8 8 8 8 7 6 6 5 4 4 4 2 2 2 2 2 3 3 3 3 3 4 6 5 5 5 7 8 8 8 7 7 7 5 5 4 3
9 9 9 9 8 9 9 9 9 8 8 7 6 6 5 5 4 4 3 3 2 2 3 3 4 4 4 5 5 6 5 4 5 6 6 7 7 8 7 7 6 5 4
11 8 9 9 8 9 10 10 8 10 9 9 8 7 7 7 7 6 5 3 2 2 2 3 4 4 5 6 6 5 6 5 4 5 6 5 5 4 4 6 6 6 5
9 8 8 9 9 11 10 9 8 8 7 8 8 8 8 8 9 10 8 7 5 3 2 2 3 4 5 5 5 6 6 6 5 5 5 5 5 4 4 4 5 7 7
9 9 9 8 9 9 10 9 9 6 7 7 8 7 9 9 10 9 10 12 10 9 7 4 4 4 3 4 5 7 7 7 5 7 6 5 4 5 4 5 8 8 8
8 9 9 9 8 9 10 10 10 8 9 8 7 8 7 6 7 7 8 8 8 8 9 7 5 5 4 3 4 5 6 5 4 5 5 4 4 5 6 5 7 8 9
9 9 8 9 9 9 10 11 12 8 8 8 8 8 8 8 10 10 7 7 7 6 10 11 10 9 9 8 5 3 5 6 6 5 4 4 6 5 4 4 5 8 9
9 9 9 8 9 9 10 12 13 7 7 7 6 7 9 10 11 12 8 7 7 6 6 6 7 9 8 8 9 7 6 7 6 5 6 5 7 5 4 3 4 5 5
Wind_Direction
219 235 235 224 224 209 195 208 216 220 226 229 230 222 218 224 238 234 180 185 189 190 189 194 199 205 209 210 209 207 206 207 205 202 202 204 205 204 203 201 200 198 197
231 246 245 235 233 238 222 200 221 220 222 224 227 232 222 226 232 229 201 190 193 197 198 199 204 208 211 211 212 211 209 208 206 203 203 205 206 206 206 205 204 203 201
240 243 251 245 239 235 232 226 232 227 226 224 222 227 225 226 229 229 222 199 195 204 209 207 207 210 213 213 213 213 211 209 207 204 204 204 206 207 207 207 207 206 204
259 250 251 250 244 240 238 232 232 233 233 229 228 230 224 216 222 221 220 212 194 200 215 216 211 212 214 217 216 215 212 209 207 206 206 205 206 208 208 209 208 206 205
259 253 250 249 247 242 239 242 229 230 237 235 234 228 227 222 216 221 216 216 201 198 201 211 212 211 214 217 217 216 213 209 207 206 207 208 208 208 209 210 210 208 206
272 267 258 247 247 245 242 241 241 236 238 236 245 241 225 225 213 216 217 216 201 203 206 203 203 212 215 215 215 216 215 211 208 207 208 209 209 209 207 209 211 211 209
282 275 272 264 250 248 248 242 233 240 240 235 240 253 242 227 214 214 215 217 209 202 201 193 188 196 206 214 214 213 214 213 209 208 209 209 209 208 208 209 210 211 210
282 278 272 266 257 259 260 251 237 236 245 232 219 237 243 231 218 215 200 204 220 198 192 192 187 190 196 189 209 213 214 214 211 208 207 208 207 206 207 209 209 210 210
282 275 284 281 272 259 256 248 240 228 233 240 229 227 229 226 214 208 199 194 193 190 188 186 185 183 193 187 192 208 209 209 209 209 208 207 207 207 208 209 208 208 209
259 262 265 274 281 277 275 267 244 228 228 238 244 242 243 251 241 209 225 184 181 189 194 199 188 180 188 184 180 182 195 199 202 209 210 210 208 205 206 208 210 211 211
241 240 247 258 275 284 294 296 287 245 229 236 240 245 246 237 232 208 215 192 185 187 196 195 174 176 175 171 165 166 175 184 193 202 208 210 208 205 207 210 216 217 216
239 231 234 228 251 271 292 298 295 271 256 257 266 267 259 241 232 224 206 200 197 200 191 182 171 173 173 165 163 156 162 169 178 192 200 204 204 204 210 214 221 224 224
256 230 237 224 255 270 269 275 276 269 260 257 259 268 271 267 268 254 230 218 200 191 175 179 173 167 167 137 139 146 154 159 167 177 188 195 201 204 207 211 219 226 229
286 258 228 221 237 252 267 272 275 268 264 257 261 269 269 265 267 261 251 244 219 214 180 183 174 168 144 133 141 145 144 151 156 162 172 182 187 191 196 201 209 216 225
280 271 246 234 233 235 243 245 256 259 253 262 267 271 266 253 261 264 259 251 204 206 212 202 167 149 132 122 149 143 137 146 146 146 146 149 154 159 163 172 182 192 208
277 272 253 245 238 233 230 229 243 243 238 237 233 254 269 270 270 269 264 267 253 204 211 207 166 153 144 142 157 137 131 138 136 138 135 136 139 142 145 150 160 178 197
268 267 258 249 239 233 225 221 227 232 225 232 231 225 236 254 266 277 262 237 239 231 221 222 145 154 142 135 136 127 137 139 133 134 131 129 129 128 132 139 146 162 181
272 264 259 256 250 241 228 222 224 227 219 220 220 220 226 235 230 253 266 256 234 223 201 200 173 162 150 143 146 148 151 145 134 134 131 127 122 118 118 126 133 142 153
285 278 265 256 253 250 242 234 227 222 218 217 213 211 217 226 229 229 238 253 251 241 199 187 192 175 164 159 153 150 141 133 132 137 130 125 123 118 111 109 111 115 120
284 280 274 264 257 254 247 239 229 223 221 219 213 207 206 213 221 220 228 230 238 242 228 199 191 183 178 167 159 153 149 148 144 152 136 127 125 118 112 105 102 100 102
286 283 280 272 261 255 251 247 236 229 219 216 211 208 211 208 207 210 221 213 228 227 228 217 198 190 179 171 175 168 162 152 150 149 142 144 145 133 119 108 98 95 96
284 280 277 274 268 262 258 251 246 246 229 218 211 207 214 206 204 206 208 210 213 227 230 238 231 205 190 185 179 175 162 159 166 163 155 155 152 135 124 103 101 103 101
291 285 277 272 264 260 262 259 242 244 242 227 213 204 222 221 196 196 205 212 217 223 220 223 239 238 215 196 187 185 182 178 165 161 157 146 137 118 103 100 108 107 105
286 283 280 276 267 258 247 238 235 237 244 234 219 205 207 227 216 199 202 208 209 213 215 220 224 235 234 212 205 197 187 168 139 153 157 137 136 122 109 103 106 111 110
287 281 277 271 265 258 239 224 219 227 229 230 228 220 206 210 215 205 204 211 212 215 218 217 210 216 220 213 188 175 181 173 165 166 165 135 136 124 118 115 111 109 111
282 280 275 266 261 255 234 216 208 222 223 222 221 226 221 215 207 201 203 209 212 213 222 217 210 215 215 212 200 193 190 186 169 165 172 145 147 143 134 131 136 136 119